Lid_Strength_Index
3 4 4 4 5 6 8 5 8 4 3 9 8 10 9 10 10 9 10 10 10 11 11 12 12 12 11 10 11 13 11 11 13 14 14 13 13 13 13 14 14 14 14 14
3 4 4 5 5 7 5 7 7 5 5 11 10 9 9 10 10 9 10 10 9 9 11 12 11 11 11 11 11 12 11 12 14 15 14 14 14 13 13 13 13 15 15 13
3 4 4 5 5 7 6 7 10 7 7 7 9 10 10 11 9 9 9 9 9 10 11 10 11 11 11 10 10 9 10 11 12 13 13 12 14 14 13 13 14 14 13 12
3 3 4 4 5 6 8 7 9 7 11 10 9 8 9 10 11 9 9 10 10 10 11 11 11 10 11 11 10 11 10 12 11 11 11 12 12 12 13 14 13 14 12 12
3 3 4 4 5 6 8 8 8 7 8 8 9 10 10 10 10 10 10 10 9 9 10 10 11 10 10 10 11 11 10 12 12 13 12 12 13 12 12 12 13 13 12 12
3 3 4 5 5 7 8 5 6 7 9 9 10 10 10 10 9 9 8 9 9 10 9 8 8 7 8 8 10 11 11 11 12 13 13 13 14 12 11 12 11 11 13 10
3 3 3 4 5 7 6 5 6 8 10 9 9 9 9 9 9 9 9 8 9 8 7 7 8 8 9 8 9 8 10 11 11 13 13 16 10 10 10 11 10 9 10 9
2 3 3 4 5 7 7 5 6 7 9 9 9 8 8 8 8 9 9 8 7 6 8 9 11 11 11 10 9 10 9 10 12 13 14 12 11 9 12 12 10 8 9 8
3 3 3 3 4 6 8 6 4 7 9 9 8 9 8 9 9 9 9 9 7 7 8 9 12 13 12 13 13 12 11 10 11 13 15 15 10 10 9 9 12 7 7 8
3 3 3 3 4 5 7 8 5 6 9 8 8 9 9 7 8 9 9 10 10 8 8 11 11 12 10 13 13 15 14 12 13 13 14 12 8 10 9 12 10 7 7 7
3 3 3 3 4 4 6 8 7 6 7 8 8 7 8 8 7 9 9 10 10 10 10 11 11 11 11 11 10 12 13 13 14 13 14 15 7 10 11 8 6 7 7 7
4 4 3 4 4 4 6 8 7 7 8 8 8 8 7 7 7 7 9 8 9 9 10 9 9 11 10 11 12 10 12 10 11 10 11 8 8 7 8 7 7 6 7 7
4 4 4 4 4 4 6 6 7 8 10 10 10 11 8 7 7 6 9 8 7 7 6 7 7 10 9 11 11 9 10 8 10 9 8 8 8 8 7 7 8 7 7 7
3 4 4 4 4 5 6 7 6 8 8 11 10 8 9 7 7 7 7 8 8 7 7 7 8 10 7 9 8 8 8 8 10 10 8 8 8 8 7 7 7 7 7 7
4 4 4 4 4 5 6 9 9 8 9 13 10 9 9 9 8 7 7 8 9 9 9 9 10 8 8 9 9 10 7 9 10 10 7 8 7 6 6 7 7 7 7 6
3 4 4 4 4 7 8 12 10 8 8 12 13 10 11 10 10 9 8 8 9 9 10 11 9 8 10 12 11 8 7 6 7 8 7 7 7 6 6 6 6 6 6 5
4 3 4 4 6 6 9 11 7 7 7 13 16 15 11 11 11 11 11 9 10 10 11 12 11 11 11 14 13 9 7 6 6 6 7 8 7 8 6 6 5 5 5 5
4 2 4 4 5 7 8 7 7 7 11 12 17 17 13 10 13 14 11 12 12 12 12 12 12 11 12 15 11 9 9 8 8 7 6 6 6 6 6 5 5 6 6 6
3 4 5 5 8 9 9 6 6 8 10 16 17 15 15 10 12 11 12 11 15 12 14 14 12 14 16 12 11 10 9 9 8 7 7 6 7 7 6 6 6 7 7 6
3 5 9 12 10 5 6 10 13 14 15 14 13 9 14 11 13 13 13 13 15 17 15 12 14 15 11 9 9 8 8 7 7 8 8 7 7 7 7 7 7 7 7 6
6 11 12 10 7 9 12 14 13 14 15 15 11 10 13 10 13 14 12 16 15 17 14 14 16 15 11 8 8 7 7 7 6 6 6 6 7 7 7 7 7 7 7 7
6 8 7 8 12 13 13 13 13 13 14 13 12 10 10 11 9 12 14 15 15 15 12 15 16 12 9 8 7 7 6 6 6 6 6 6 7 7 7 7 7 7 7 7
6 9 12 12 13 14 14 16 15 13 11 11 12 13 12 12 10 12 14 15 15 12 14 14 13 9 9 9 8 7 7 7 8 8 8 7 8 8 8 9 8 8 8 8
9 11 13 12 14 13 13 12 11 11 10 11 9 11 11 11 12 13 14 13 13 15 16 15 11 9 9 8 8 8 8 9 9 9 9 9 9 8 7 7 7 8 8 7
10 10 12 12 9 10 9 10 11 11 9 9 10 10 10 12 12 12 12 14 14 14 14 11 9 8 8 9 9 9 9 9 8 8 9 8 8 8 8 7 6 6 6 6
9 10 10 9 10 11 10 10 10 8 7 7 8 11 12 12 12 13 13 13 14 11 9 8 8 8 8 8 8 8 8 7 7 7 7 7 7 7 7 6 6 6 6 6
8 9 7 7 7 7 8 8 9 6 7 10 10 12 12 11 12 13 10 12 9 8 7 7 7 7 7 7 7 7 7 7 6 6 6 6 6 6 6 6 5 5 5 5